Погода в Нижнеудинске

Россия / Иркутская область     54°54′04″N   99°01′34″E
темп.,
°C
ветер,
м/с
пор.,
м/с
влажн.,
%
обл.,
%
осадки,
мм/ч
давл.,
гПа
погр.,
м
9 августа, вт
вт923:00+13зюз11795 0.0 101211
02:00+11юз11857 0.0 101210
05:00+10юз00875 0.0 101210
08:00+14ююв0074100 0.0 101292
11:00+21в125381 0.0 1011654
14:00+24в1241100 0.0 10101900
17:00+22св224888 0.0 10091157
20:00+18юв016990 0.0 100921
10 августа, ср
ср1023:00+15ююв118328 0.6 101015
02:00+12сз009517 1.2 101010
05:00+11ююз00976 0.5 101010
08:00+13ю129446 0.9 1009145
11:00+17с1182100 0.7 1009448
14:00+19ссз347824 3.6 1008553
17:00+20с236541 0.9 10081143
20:00+17з1186100 1.9 100912
11 августа, чт
чт1123:00+12юз219463 0.3 101013
02:00+13зюз1191100 0.3 100912
05:00+11з119542 0.0 101011
08:00+13зюз119351 0.2 101044
11:00+18зсз378221 1.3 1009981
14:00+22сз574927 1.4 10081969
17:00+19ссз2763100 0.0 1009422
20:00+17ссз22765 0.0 100929
12 августа, пт
пт1223:00+13юз11905 0.0 101111
02:00+11юз119215 0.0 101111
05:00+13ююз2284100 0.1 101038
08:00+15ююв118779 0.2 101066
11:00+19сз017899 0.8 1009314
14:00+16св1294100 3.8 1010170
17:00+20зсз1270100 0.2 1009718
20:00+17ссз2288100 0.9 100940
13 августа, сб
сб1323:00+13зсз219719 0.7 101017
02:00+12зюз119743 0.7 101011
05:00+11зюз119722 0.0 100910
08:00+13ссз119450 0.0 1010116
11:00+16ююв118578 0.8 1009221
14:00+20юв22568 1.4 10081286
17:00+21всв025257 0.0 10071104
20:00+17ю00640 0.0 100711